Cloud_Cover
1 50 95 60 10 0 0 0 0 0 0 1 0 10 8 0 3 34 0 6 26 54 28 0 0 0 0 0 2 8 14 7 0 3 5 5 5 6 100 5 99 100 99 100 100 100 13 100 36
40 39 31 0 1 0 0 0 0 0 0 0 0 0 0 11 0 0 0 3 35 61 80 32 0 0 2 0 5 0 0 4 7 5 5 23 37 38 100 9 80 100 100 100 100 100 98 19 13
28 59 11 0 0 0 0 0 0 0 0 0 0 0 0 0 0 0 0 0 13 36 100 47 0 0 0 2 3 3 14 51 43 5 31 70 42 94 100 28 78 86 100 100 100 100 100 77 7
12 4 0 0 0 0 0 0 0 0 0 0 0 0 0 0 0 0 0 0 0 23 52 13 0 0 0 0 30 29 72 3 5 2 5 65 100 100 100 100 56 100 100 100 100 100 100 100 72
0 0 2 0 0 0 0 0 0 0 0 0 0 0 0 0 0 0 0 0 4 13 74 12 0 0 0 15 18 82 5 4 5 5 5 22 100 99 100 100 91 100 100 100 100 100 100 100 100
0 0 15 0 0 0 0 0 0 0 0 0 0 0 0 0 0 0 0 0 0 7 28 82 0 0 5 76 82 21 26 8 4 8 98 100 100 100 100 100 100 100 100 100 100 100 100 100 100
0 2 0 0 0 0 0 0 0 0 0 0 0 0 0 0 0 0 0 0 0 0 8 99 62 6 92 5 7 5 54 70 5 86 79 95 85 100 100 100 100 96 100 100 100 100 100 97 100
0 0 2 1 2 0 0 0 0 0 0 0 0 0 0 0 0 0 0 0 0 0 1 22 96 100 86 100 99 34 16 100 15 97 100 99 100 100 98 100 99 100 100 100 100 100 100 100 13
0 1 0 3 3 0 0 0 0 0 0 0 0 0 0 0 0 0 0 0 0 0 0 1 10 96 100 100 100 100 40 5 42 42 100 100 97 100 100 100 100 100 100 100 100 100 99 27 14
0 2 0 0 0 0 0 0 0 0 0 0 0 0 0 0 0 0 0 0 0 0 0 0 5 70 100 100 100 100 100 69 6 100 98 37 100 100 98 90 96 96 99 94 100 100 100 83 97
0 0 0 0 0 0 0 0 0 0 0 0 0 0 0 0 0 0 0 0 0 0 0 0 11 100 100 100 97 100 100 100 100 81 98 100 86 100 63 41 75 88 100 100 100 100 14 65 97
0 0 0 0 0 0 0 0 0 0 0 0 0 0 0 0 0 0 3 0 0 0 0 0 3 96 100 100 93 100 100 100 100 100 100 26 100 100 59 80 62 94 100 99 100 100 82 91 58
0 0 0 0 0 0 0 0 0 0 0 0 0 0 0 0 0 0 2 0 0 0 0 0 3 45 100 100 98 100 44 74 100 100 100 100 11 91 35 26 46 84 100 100 12 88 93 100 100
0 0 0 0 0 0 0 0 0 0 0 0 0 0 0 0 0 0 0 0 0 0 0 0 0 5 100 98 82 79 91 19 92 100 100 98 41 5 15 34 10 30 67 100 58 68 99 100 84
4 1 0 0 0 0 0 0 0 0 0 0 0 0 0 0 0 0 1 0 0 0 3 4 4 5 93 100 7 94 78 46 76 100 100 100 78 11 9 7 22 27 99 8 64 63 28 31 23
0 4 17 22 0 0 0 91 0 0 0 0 0 0 0 5 0 0 3 0 1 76 100 99 68 64 5 100 97 87 80 37 90 99 85 100 70 81 51 5 18 12 43 90 26 17 18 39 45
0 0 83 21 0 0 0 2 0 0 0 0 0 0 1 5 0 0 0 0 93 100 100 100 58 33 60 100 67 76 57 76 98 98 96 100 99 100 100 38 93 100 95 100 87 97 40 74 30
2 5 3 3 25 3 0 0 0 0 0 0 0 0 0 0 0 0 4 5 100 95 100 100 100 100 100 100 100 100 95 92 22 93 100 100 99 100 100 99 83 100 100 83 24 17 62 36 50
0 0 0 0 4 2 0 0 0 0 0 0 0 0 0 0 0 25 0 1 5 12 75 100 62 100 100 100 100 100 100 100 100 100 100 100 99 100 100 100 100 100 100 100 93 87 25 41 51
0 0 0 0 0 0 0 0 0 0 0 0 0 0 1 0 0 76 3 0 6 10 46 100 80 99 100 100 100 97 100 100 100 100 100 96 100 89 71 100 100 100 100 100 100 42 80 87 37
0 0 0 0 1 0 5 0 0 0 0 0 0 0 0 0 0 2 2 0 9 42 61 95 91 16 98 99 93 81 93 100 100 100 100 100 100 100 100 85 100 100 76 72 96 96 78 96 98
0 0 0 0 0 1 10 0 5 0 0 0 0 0 0 0 0 0 0 0 3 82 100 100 100 100 73 80 63 70 2 100 100 100 100 83 100 100 100 100 68 92 100 100 100 100 98 90 87
0 0 0 0 0 0 0 1 0 0 0 2 0 0 0 0 4 0 0 2 92 52 100 100 100 100 100 87 7 5 7 98 63 34 7 8 53 99 100 100 100 98 81 100 100 100 100 98 79
0 0 0 0 0 0 0 4 0 70 2 0 0 0 1 5 0 0 0 2 59 90 100 100 100 100 100 45 20 18 100 100 100 62 7 39 94 96 95 100 100 100 99 98 100 72 87 84 100
0 0 0 0 0 0 2 0 0 15 0 0 0 0 0 1 0 0 5 8 65 100 100 100 100 100 100 36 24 26 100 100 100 92 12 21 100 41 62 76 100 100 100 98 98 100 100 100 100
0 0 3 2 0 5 0 0 0 0 0 0 0 0 5 5 0 4 2 17 17 67 100 100 100 100 100 81 2 34 100 100 100 76 5 5 78 100 100 100 99 99 100 100 100 91 100 100 100
0 5 5 2 5 5 2 0 0 0 0 0 0 0 0 0 0 0 0 5 99 76 100 100 100 100 100 98 25 100 100 100 94 34 5 5 93 99 100 100 59 18 94 100 100 100 84 91 97
0 0 2 4 0 3 0 0 0 0 0 0 0 0 0 0 0 0 0 9 4 52 96 100 100 100 100 100 100 98 84 50 36 36 5 5 7 12 100 95 86 92 56 63 98 100 100 100 100
0 0 0 1 5 5 5 9 0 0 0 0 0 0 0 0 0 0 0 0 0 3 96 100 100 100 100 100 100 95 32 5 18 79 56 67 64 82 78 84 62 28 54 64 97 81 81 100 100
0 0 0 0 0 0 0 4 0 0 0 0 0 0 0 0 0 0 0 0 0 0 100 100 100 100 100 100 100 100 95 61 5 44 71 81 86 87 18 28 87 100 64 16 33 62 98 90 100